Location: Newark
(48.1500°N, 80.0333°W)
Time: 19:45:39
(UTC+00:00)

N. Korean satellite - Visible Passes

Search period start: 17 February 2020 00:00
Search period end: 27 February 2020 00:00
Orbit: 456 x 506 km, 97.2° (Epoch: 17 February)

Date Brightness Start Highest point End Pass type
(mag) Time Alt. Az. Time Alt. Az. Time Alt. Az.
17 Feb 10.1 10:02:04 10° ENE 10:03:47 13° E 10:05:30 10° ESE visible
17 Feb 6.7 11:33:51 10° N 11:37:31 56° WNW 11:41:10 10° SSW visible
18 Feb 6.9 11:08:16 10° NNE 11:12:01 72° ESE 11:15:43 10° S visible
18 Feb 10.0 23:21:57 10° SW 23:24:03 15° W 23:26:09 10° NW visible
19 Feb 8.4 10:42:56 10° NNE 10:46:25 35° E 10:49:51 10° SSE visible
20 Feb 9.6 10:17:59 10° NE 10:20:43 19° E 10:23:26 10° SE visible
21 Feb 10.3 09:54:29 10° E 09:54:55 10° E 09:55:22 10° E visible
21 Feb 6.6 11:25:02 10° N 11:28:46 72° WNW 11:32:27 10° SSW visible
22 Feb 7.4 10:59:33 10° NNE 11:03:14 56° E 11:06:52 10° S visible
23 Feb 8.8 10:34:18 10° NE 10:37:35 29° E 10:40:50 10° SSE visible
24 Feb 9.9 10:09:32 10° NE 10:11:51 16° E 10:14:08 10° SE visible
24 Feb 7.0 11:41:54 10° N 11:45:28 45° WNW 11:49:01 10° SW visible
25 Feb 6.6 11:16:14 10° NNE 11:19:59 90° WNW 11:23:41 10° SSW visible
25 Feb 10.3 23:30:31 10° WSW 23:32:03 12° W 23:33:37 10° WNW visible
26 Feb 7.9 10:50:49 10° NNE 10:54:24 44° E 10:57:56 10° S visible
